SM4TUV Weather Reports


time (UTC)temp
C
wind
direction
speed
KPH
gust
KPH
rain 1hr
cm
rain 24hr
cm
rain mn
cm
humidity
%
barometer
mb
20260503004731 5 55 14.5 17.7 0.00 0.00 0.00 71 977.8
20260503002931 5 51 17.7 22.5 0.00 0.00 0.00 72 977.7
20260503002031 5 67 16.1 20.9 0.00 0.00 0.00 72 977.6
20260503001132 5 25 12.9 17.7 0.00 0.00 0.00 72 977.5
20260503000233 5 38 14.5 19.3 0.00 0.00 0.00 72 977.4
20260502235331 5 57 16.1 19.3 0.00 0.00 0.00 73 977.4
20260502234431 5 50 16.1 22.5 0.00 0.00 0.00 73 977.3
20260502233531 5 46 16.1 24.1 0.00 0.00 0.00 73 977.1
20260502232632 5 88 19.3 24.1 0.00 0.00 0.00 73 977.2
20260502230831 5 46 20.9 20.9 0.00 0.00 0.00 72 976.9
20260502225931 6 62 22.5 33.8 0.00 0.00 0.00 71 976.9
20260502225031 6 59 20.9 30.6 0.00 0.00 0.00 71 976.4
20260502224131 6 45 20.9 32.2 0.00 0.00 0.00 71 976.5
20260502223231 6 63 27.4 38.6 0.00 0.00 0.00 71 976.4
20260502222331 7 62 22.5 38.6 0.00 0.00 0.00 71 976.3
20260502221431 7 55 20.9 27.4 0.00 0.00 0.00 71 976.3
20260502220531 7 47 25.7 35.4 0.00 0.00 0.00 70 976.2
20260502215632 8 34 29.0 37.0 0.00 0.00 0.00 70 976.1
20260502214731 8 38 29.0 35.4 0.00 0.00 0.00 71 975.9
20260502213831 9 47 29.0 33.8 0.00 0.00 0.00 71 975.8
20260502212931 9 23 22.5 33.8 0.00 0.00 0.00 70 975.6
20260502211131 9 343 4.8 8.0 0.00 0.00 0.00 71 975.4
20260502210231 10 196 3.2 4.8 0.00 0.00 0.00 71 975.1
20260502205331 10 223 4.8 6.4 0.00 0.00 0.00 70 975.0
20260502204431 10 260 4.8 6.4 0.00 0.00 0.00 70 975.0
20260502203531 10 211 6.4 8.0 0.00 0.00 0.00 70 974.8
20260502202632 10 191 6.4 8.0 0.00 0.00 0.00 70 974.8
20260502200831 10 224 3.2 6.4 0.00 0.00 0.00 70 974.9
20260502195931 10 240 4.8 9.7 0.00 0.00 0.00 69 974.9
20260502195031 10 222 6.4 9.7 0.00 0.00 0.00 69 974.8
20260502194131 10 232 8.0 11.3 0.00 0.00 0.00 68 974.8
20260502193231 10 231 8.0 11.3 0.00 0.00 0.00 68 974.7
20260502191431 10 212 8.0 14.5 0.00 0.00 0.00 67 974.8
20260502190531 10 220 9.7 14.5 0.00 0.00 0.00 67 974.7
20260502185632 10 202 11.3 19.3 0.00 0.00 0.00 66 974.7
20260502183831 11 206 9.7 14.5 0.00 0.00 0.00 65 974.7
20260502182931 11 219 9.7 12.9 0.00 0.00 0.00 66 974.9
20260502182031 11 224 11.3 12.9 0.00 0.00 0.00 65 975.0
20260502181131 11 233 12.9 17.7 0.00 0.00 0.00 64 975.0
20260502180231 12 233 9.7 12.9 0.00 0.00 0.00 58 975.0
20260502164131 13 301 11.3 17.7 0.00 0.00 0.00 49 974.6
20260502163231 13 306 14.5 20.9 0.00 0.00 0.00 48 974.7
20260502162331 14 301 16.1 24.1 0.00 0.00 0.00 47 974.9
20260502161431 14 280 14.5 19.3 0.00 0.00 0.00 47 974.8
20260502160531 14 204 12.9 14.5 0.00 0.00 0.00 45 974.9
20260502152031 14 324 17.7 24.1 0.00 0.00 0.00 44 975.2
20260502151131 15 294 11.3 12.9 0.00 0.00 0.00 43 975.1
20260502150231 15 308 11.3 14.5 0.00 0.00 0.00 40 975.1
20260502130531 17 316 16.1 25.7 0.00 0.00 0.00 33 975.2
20260502122931 17 316 14.5 19.3 0.00 0.00 0.00 32 975.2
20260502122031 17 305 17.7 25.7 0.00 0.00 0.00 32 975.2
20260502121131 18 299 8.0 17.7 0.00 0.00 0.00 29 975.3
20260502120231 18 276 6.4 11.3 0.00 0.00 0.00 32 975.3
20260502115331 18 276 11.3 14.5 0.00 0.00 0.00 29 975.4
20260502113531 20 275 12.9 16.1 0.00 0.00 0.00 29 975.4
20260502112632 19 302 12.9 19.3 0.00 0.00 0.00 31 975.7
20260502111731 18 297 11.3 16.1 0.00 0.00 0.00 33 975.8
20260502110831 18 335 12.9 14.5 0.00 0.00 0.00 34 975.9
20260502105931 17 278 12.9 19.3 0.00 0.00 0.00 34 975.9
20260502104132 18 262 14.5 17.7 0.00 0.00 0.00 32 975.9
20260502103231 19 224 17.7 29.0 0.00 0.00 0.00 31 975.9
20260502102331 18 259 14.5 22.5 0.00 0.00 0.00 31 976.1
20260502101431 18 253 11.3 17.7 0.00 0.00 0.00 33 976.2
20260502100531 17 207 14.5 17.7 0.00 0.00 0.00 31 976.0
20260502091131 17 237 12.9 17.7 0.00 0.00 0.00 33 976.6
20260502090231 17 267 12.9 20.9 0.00 0.00 0.00 35 976.6
20260502070531 15 201 12.9 17.7 0.00 0.00 0.00 45 977.6
20260502065632 15 231 12.9 17.7 0.00 0.00 0.00 45 977.5
20260502064731 15 254 9.7 14.5 0.00 0.00 0.00 46 977.7
20260502063831 14 216 9.7 17.7 0.00 0.00 0.00 47 977.9
20260502062931 14 214 11.3 17.7 0.00 0.00 0.00 49 977.9
20260502062031 14 253 9.7 17.7 0.00 0.00 0.00 48 978.0
20260502061131 13 238 11.3 17.7 0.00 0.00 0.00 50 977.9
20260502060231 13 221 14.5 17.7 0.00 0.00 0.00 51 978.1
20260502054431 12 242 12.9 19.3 0.00 0.00 0.00 52 978.0
20260502053531 12 248 12.9 17.7 0.00 0.00 0.00 52 978.1
20260502052632 12 247 11.3 19.3 0.00 0.00 0.00 53 978.0
20260502050831 11 218 12.9 17.7 0.00 0.00 0.00 54 978.0
20260502045931 11 227 14.5 19.3 0.00 0.00 0.00 55 978.1
20260502045032 11 235 12.9 17.7 0.00 0.00 0.00 55 978.2
20260502044132 11 216 11.3 17.7 0.00 0.00 0.00 55 978.1
20260502041432 10 230 9.7 16.1 0.00 0.00 0.00 58 978.2
20260502040531 10 243 9.7 11.3 0.00 0.00 0.00 60 978.3
20260502035632 10 219 9.7 12.9 0.00 0.00 0.00 60 978.4
20260502034731 10 227 11.3 12.9 0.00 0.00 0.00 61 978.5
20260502033832 9 209 9.7 12.9 0.00 0.00 0.00 63 978.5
20260502032931 8 226 9.7 12.9 0.00 0.00 0.00 63 978.6
20260502031131 8 225 11.3 16.1 0.00 0.00 0.00 64 978.7
20260502030233 8 255 9.7 17.7 0.00 0.00 0.00 64 978.8
20260502025332 8 223 12.9 17.7 0.00 0.00 0.00 64 978.9
20260502024431 8 233 9.7 12.9 0.00 0.00 0.00 63 978.9
20260502023531 9 232 12.9 16.1 0.00 0.00 0.00 63 978.9
20260502022632 9 234 12.9 16.1 0.00 0.00 0.00 62 979.1
20260502021732 9 250 9.7 17.7 0.00 0.00 0.00 61 979.0
20260502015931 10 219 16.1 19.3 0.00 0.00 0.00 60 979.1
20260502015031 10 225 12.9 17.7 0.00 0.00 0.00 60 979.1
20260502014132 10 233 12.9 16.1 0.00 0.00 0.00 60 979.3
20260502013232 10 253 11.3 16.1 0.00 0.00 0.00 59 979.4
20260502012331 10 235 14.5 16.1 0.00 0.00 0.00 58 979.7
20260502011431 10 230 12.9 16.1 0.00 0.00 0.00 58 979.9
20260502010532 11 230 12.9 16.1 0.00 0.00 0.00 56 979.9
20260502005633 11 227 12.9 17.7 0.00 0.00 0.00 56 980.1